Location: Hebron
(33.0265°N, 96.8636°W)
Time: 04:25:57
(UTC+00:00)

Cosmos 1538 Rocket - Pass Details

Date: 03 July 2022
Orbit: 752 x 791 km, 74.0° (Epoch: 07 August)

Event Time Altitude Azimuth Distance (km) Brightness Sun altitude
Rises 09:59:47 0° 158° (SSE) 3,236 7.0 -15.2°
Reaches altitude 10° 10:02:48 10° 141° (SE) 2,305 6.5 -14.8°
Maximum altitude 10:06:24 19° 97° (E) 1,757 6.4 -14.2°
Drops below altitude 10° 10:10:00 10° 53° (NE) 2,298 8.0 -13.6°
Sets 10:12:58 0° 36° (NE) 3,221 8.9 -13.1°
